,,Stat6,,Stat2,,Stat8,,Stat9,,Stat10,,Wind1,,Wind1,
time,status,PA1M_AVG,status,PR1M_SUM,status,RH1M_AVG,status,SR1M_AVG,status,TA1M_AVG,status,W1dAve1m,status,W1sAve1m,
2005-10-22, 00:00:00,VALID,918.434,VALID,0.2,VALID,100,VALID,-0.0679233,VALID,19.693,VALID,23,VALID,0.897321,
2005-10-22, 00:01:00,VALID,918.432,VALID,0,VALID,100,VALID,-0.0509425,VALID,19.702,VALID,27,VALID,0.544643,
2005-10-22, 00:02:00,VALID,918.418,VALID,0,VALID,100,VALID,-0.0679233,VALID,19.696,VALID,23,VALID,0.590774,
2005-10-22, 00:03:00,VALID,918.408,VALID,0,VALID,100,VALID,-0.0849042,VALID,19.6764,VALID,12,VALID,0.607558,
2005-10-22, 00:04:00,VALID,918.411,VALID,0,VALID,100,VALID,-0.101885,VALID,19.6508,VALID,343,VALID,0.72934,
2005-10-22, 00:05:00,VALID,918.409,VALID,0,VALID,100,VALID,-0.0339617,VALID,19.6145,VALID,340,VALID,0.476199,
2005-10-22, 00:06:00,VALID,918.408,VALID,0,VALID,100,VALID,-0.0509425,VALID,19.612,VALID,344,VALID,0.523615,
2005-10-22, 00:07:00,VALID,918.387,VALID,0,VALID,100,VALID,-0.0509425,VALID,19.6217,VALID,16,VALID,0.583984,
2005-10-22, 00:08:00,VALID,918.395,VALID,0,VALID,100,VALID,-0.0169808,VALID,19.6182,VALID,355,VALID,0.126715,
2005-10-22, 00:09:00,VALID,918.378,VALID,0,VALID,100,VALID,-0.101885,VALID,19.6383,VALID,355,VALID,0.0352515,
2005-10-22, 00:10:00,VALID,918.363,VALID,0,VALID,100,VALID,-0.0849042,VALID,19.6284,VALID,355,VALID,0.365589,
2005-10-22, 00:11:00,VALID,918.365,VALID,0,VALID,100,VALID,-0.0849042,VALID,19.6446,VALID,355,VALID,0.369186,
2005-10-22, 00:12:00,VALID,918.343,VALID,0.2,VALID,100,VALID,-0.0849042,VALID,19.6349,VALID,355,VALID,0.190039,
2005-10-22, 00:13:00,VALID,918.323,VALID,0,VALID,100,VALID,-0.0849042,VALID,19.6316,VALID,355,VALID,0.273624,
2005-10-22, 00:14:00,VALID,918.315,VALID,0,VALID,100,VALID,-0.0679233,VALID,19.6287,VALID,8,VALID,0.652083,
2005-10-22, 00:15:00,VALID,918.316,VALID,0,VALID,100,VALID,-0.0509425,VALID,19.6344,VALID,14,VALID,0.43045,
2005-10-22, 00:16:00,VALID,918.309,VALID,0,VALID,100,VALID,-0.0849042,VALID,19.6677,VALID,14,VALID,0.285252,
2005-10-22, 00:17:00,VALID,918.302,VALID,0,VALID,100,VALID,-0.0509425,VALID,19.6642,VALID,12,VALID,0.250195,
2005-10-22, 00:18:00,VALID,918.28,VALID,0,VALID,100,VALID,0.0339617,VALID,19.6555,VALID,12,VALID,0.310138,
2005-10-22, 00:19:00,VALID,918.27,VALID,0,VALID,100,VALID,0.0169808,VALID,19.6299,VALID,20,VALID,0.54621,
2005-10-22, 00:20:00,VALID,918.263,VALID,0,VALID,100,VALID,0.0509425,VALID,19.6167,VALID,2,VALID,0.632068,
2005-10-22, 00:21:00,VALID,918.247,VALID,0,VALID,100,VALID,0.0679233,VALID,19.5914,VALID,342,VALID,1.57653,
2005-10-22, 00:22:00,VALID,918.23,VALID,0,VALID,100,VALID,0.0849042,VALID,19.5715,VALID,359,VALID,1.15288,
2005-10-22, 00:23:00,VALID,918.21,VALID,0,VALID,100,VALID,0.0509425,VALID,19.572,VALID,12,VALID,1.19568,
2005-10-22, 00:24:00,VALID,918.192,VALID,0,VALID,100,VALID,0,VALID,19.5688,VALID,6,VALID,1.04954,
2005-10-22, 00:25:00,VALID,918.182,VALID,0,VALID,100,VALID,0.0339617,VALID,19.5621,VALID,10,VALID,1.08281,
2005-10-22, 00:26:00,VALID,918.184,VALID,0,VALID,100,VALID,0.0339617,VALID,19.5693,VALID,344,VALID,0.595312,
2005-10-22, 00:27:00,VALID,918.171,VALID,0,VALID,100,VALID,0.0169808,VALID,19.5464,VALID,322,VALID,0.533537,
2005-10-22, 00:28:00,VALID,918.18,VALID,0,VALID,100,VALID,0.0339617,VALID,19.5333,VALID,322,VALID,0.491667,
2005-10-22, 00:29:00,VALID,918.163,VALID,0,VALID,100,VALID,0.0169808,VALID,19.5072,VALID,341,VALID,0.487827,
2005-10-22, 00:30:00,VALID,918.148,VALID,0,VALID,100,VALID,0.0339617,VALID,19.5171,VALID,6,VALID,1.08203,
2005-10-22, 00:31:00,VALID,918.133,VALID,0,VALID,100,VALID,0,VALID,19.5241,VALID,340,VALID,0.714343,
2005-10-22, 00:32:00,VALID,918.119,VALID,0,VALID,100,VALID,0.0169808,VALID,19.5238,VALID,357,VALID,0.49707,
2005-10-22, 00:33:00,VALID,918.118,VALID,0,VALID,100,VALID,-0.0849042,VALID,19.5156,VALID,359,VALID,0.338889,
2005-10-22, 00:34:00,VALID,918.107,VALID,0.2,VALID,100,VALID,-0.0509425,VALID,19.5253,VALID,4,VALID,0.60423,
2005-10-22, 00:35:00,VALID,918.109,VALID,0,VALID,100,VALID,-0.0509425,VALID,19.5089,VALID,345,VALID,0.493823,
2005-10-22, 00:36:00,VALID,918.108,VALID,0,VALID,100,VALID,-0.101885,VALID,19.5094,VALID,312,VALID,0.551215,
2005-10-22, 00:37:00,VALID,918.108,VALID,0,VALID,100,VALID,-0.0849042,VALID,19.5096,VALID,339,VALID,0.525298,
2005-10-22, 00:38:00,VALID,918.079,VALID,0,VALID,100,VALID,-0.0849042,VALID,19.5091,VALID,17,VALID,0.806108,
2005-10-22, 00:39:00,VALID,918.082,VALID,0,VALID,100,VALID,-0.101885,VALID,19.5221,VALID,13,VALID,0.777716,
2005-10-22, 00:40:00,VALID,918.077,VALID,0,VALID,100,VALID,-0.0679233,VALID,19.5352,VALID,2,VALID,0.430469,
2005-10-22, 00:41:00,VALID,918.062,VALID,0,VALID,100,VALID,-0.101885,VALID,19.5258,VALID,1,VALID,0.263464,
2005-10-22, 00:42:00,VALID,918.049,VALID,0,VALID,100,VALID,-0.0849042,VALID,19.5193,VALID,1,VALID,0.489901,
2005-10-22, 00:43:00,VALID,918.029,VALID,0,VALID,100,VALID,-0.0679233,VALID,19.5059,VALID,351,VALID,0.817587,
2005-10-22, 00:44:00,VALID,918.021,VALID,0,VALID,100,VALID,-0.0849042,VALID,19.4992,VALID,360,VALID,0.753452,
2005-10-22, 00:45:00,VALID,918.014,VALID,0,VALID,100,VALID,-0.0509425,VALID,19.5161,VALID,16,VALID,0.890625,
2005-10-22, 00:46:00,VALID,917.998,VALID,0,VALID,100,VALID,-0.0849042,VALID,19.5121,VALID,11,VALID,0.669141,
2005-10-22, 00:47:00,VALID,917.979,VALID,0,VALID,100,VALID,-0.0169808,VALID,19.5218,VALID,7,VALID,0.56064,
2005-10-22, 00:48:00,VALID,917.962,VALID,0,VALID,100,VALID,-0.0849042,VALID,19.5188,VALID,6,VALID,0.733445,
2005-10-22, 00:49:00,VALID,917.937,VALID,0,VALID,100,VALID,-0.0509425,VALID,19.5193,VALID,20,VALID,0.493253,
2005-10-22, 00:50:00,VALID,917.92,VALID,0,VALID,100,VALID,-0.0849042,VALID,19.5191,VALID,18,VALID,0.626635,
2005-10-22, 00:51:00,VALID,917.897,VALID,0,VALID,100,VALID,-0.0849042,VALID,19.5158,VALID,14,VALID,0.614169,
2005-10-22, 00:52:00,VALID,917.868,VALID,0,VALID,100,VALID,-0.0509425,VALID,19.5158,VALID,356,VALID,0.720982,
2005-10-22, 00:53:00,VALID,917.835,VALID,0,VALID,100,VALID,-0.101885,VALID,19.4898,VALID,6,VALID,0.706845,
2005-10-22, 00:54:00,VALID,917.821,VALID,0,VALID,100,VALID,-0.0679233,VALID,19.4997,VALID,354,VALID,0.90718,
2005-10-22, 00:55:00,VALID,917.806,VALID,0,VALID,100,VALID,-0.0509425,VALID,19.4868,VALID,353,VALID,0.949041,
2005-10-22, 00:56:00,VALID,917.774,VALID,0,VALID,100,VALID,-0.0679233,VALID,19.4701,VALID,13,VALID,1.14143,
2005-10-22, 00:57:00,VALID,917.759,VALID,0,VALID,100,VALID,-0.0339617,VALID,19.4962,VALID,20,VALID,1.09028,
2005-10-22, 00:58:00,VALID,917.728,VALID,0,VALID,100,VALID,-0.0679233,VALID,19.5059,VALID,17,VALID,1.25399,
2005-10-22, 00:59:00,VALID,917.721,VALID,0,VALID,100,VALID,-0.0169808,VALID,19.5126,VALID,11,VALID,1.0202,
2005-10-22, 01:00:00,VALID,917.698,VALID,0,VALID,100,VALID,-0.0679233,VALID,19.5059,VALID,9,VALID,0.615513,
2005-10-22, 01:01:00,VALID,917.672,VALID,0,VALID,100,VALID,-0.0339617,VALID,19.525,VALID,9,VALID,0.651228,
2005-10-22, 01:02:00,VALID,917.639,VALID,0,VALID,100,VALID,-0.0679233,VALID,19.4992,VALID,12,VALID,0.847751,
2005-10-22, 01:03:00,VALID,917.625,VALID,0,VALID,100,VALID,0.0339617,VALID,19.4913,VALID,21,VALID,0.708939,
2005-10-22, 01:04:00,VALID,917.603,VALID,0,VALID,100,VALID,0.0679233,VALID,19.5042,VALID,17,VALID,0.805618,
2005-10-22, 01:05:00,VALID,917.578,VALID,0,VALID,100,VALID,0.0679233,VALID,19.5107,VALID,7,VALID,0.600818,
2005-10-22, 01:06:00,VALID,917.546,VALID,0,VALID,100,VALID,0.0509425,VALID,19.5144,VALID,17,VALID,1.01871,
2005-10-22, 01:07:00,VALID,917.538,VALID,0,VALID,100,VALID,0.0679233,VALID,19.4913,VALID,17,VALID,0.688179,
2005-10-22, 01:08:00,VALID,917.513,VALID,0.2,VALID,100,VALID,0.0679233,VALID,19.5107,VALID,11,VALID,0.501953,
2005-10-22, 01:09:00,VALID,917.491,VALID,0,VALID,100,VALID,0.0509425,VALID,19.5015,VALID,1,VALID,0.5129,
2005-10-22, 01:10:00,VALID,917.463,VALID,0,VALID,100,VALID,0.101885,VALID,19.4945,VALID,360,VALID,0.244922,
2005-10-22, 01:11:00,VALID,917.448,VALID,0,VALID,100,VALID,0.0509425,VALID,19.5116,VALID,360,VALID,0.265244,
2005-10-22, 01:12:00,VALID,917.418,VALID,0,VALID,100,VALID,0.0509425,VALID,19.4754,VALID,358,VALID,0.525856,
2005-10-22, 01:13:00,VALID,917.389,VALID,0,VALID,100,VALID,0.0169808,VALID,19.4664,VALID,3,VALID,0.734747,
2005-10-22, 01:14:00,VALID,917.373,VALID,0,VALID,100,VALID,0.0169808,VALID,19.456,VALID,13,VALID,1.07724,
2005-10-22, 01:15:00,VALID,917.361,VALID,0,VALID,100,VALID,0.0509425,VALID,19.4592,VALID,13,VALID,0.835547,
2005-10-22, 01:16:00,VALID,917.331,VALID,0,VALID,100,VALID,0.0509425,VALID,19.4624,VALID,10,VALID,0.902539,
2005-10-22, 01:17:00,VALID,917.313,VALID,0,VALID,100,VALID,0.0509425,VALID,19.4657,VALID,16,VALID,0.922238,
2005-10-22, 01:18:00,VALID,917.292,VALID,0,VALID,100,VALID,0.0509425,VALID,19.4821,VALID,18,VALID,0.920541,
2005-10-22, 01:19:00,VALID,917.28,VALID,0,VALID,100,VALID,0.0339617,VALID,19.4918,VALID,18,VALID,0.707403,
2005-10-22, 01:20:00,VALID,917.259,VALID,0,VALID,100,VALID,0.0169808,VALID,19.4846,VALID,19,VALID,0.62609,
2005-10-22, 01:21:00,VALID,917.241,VALID,0,VALID,100,VALID,0.0679233,VALID,19.488,VALID,18,VALID,0.520508,
2005-10-22, 01:22:00,VALID,917.22,VALID,0,VALID,100,VALID,0.0169808,VALID,19.4913,VALID,16,VALID,0.295632,
2005-10-22, 01:23:00,VALID,917.191,VALID,0,VALID,100,VALID,0.0509425,VALID,19.4751,VALID,353,VALID,0.273438,
2005-10-22, 01:24:00,VALID,917.177,VALID,0,VALID,100,VALID,0.0339617,VALID,19.4858,VALID,350,VALID,0,
2005-10-22, 01:25:00,VALID,917.158,VALID,0,VALID,100,VALID,0.0679233,VALID,19.4562,VALID,350,VALID,0.156822,
2005-10-22, 01:26:00,VALID,917.144,VALID,0,VALID,100,VALID,0.0509425,VALID,19.4597,VALID,350,VALID,0.208807,
2005-10-22, 01:27:00,VALID,917.122,VALID,0,VALID,100,VALID,0.0339617,VALID,19.4595,VALID,350,VALID,0,
2005-10-22, 01:28:00,VALID,917.108,VALID,0,VALID,100,VALID,0.0339617,VALID,19.4565,VALID,350,VALID,0,
2005-10-22, 01:29:00,VALID,917.119,VALID,0,VALID,100,VALID,0.0169808,VALID,19.4468,VALID,350,VALID,0,
2005-10-22, 01:30:00,VALID,917.107,VALID,0,VALID,100,VALID,0.0509425,VALID,19.4595,VALID,350,VALID,0,
2005-10-22, 01:31:00,VALID,917.103,VALID,0,VALID,100,VALID,0.0169808,VALID,19.4495,VALID,350,VALID,0.122523,
2005-10-22, 01:32:00,VALID,917.095,VALID,0,VALID,100,VALID,0,VALID,19.4532,VALID,350,VALID,0.0119913,
2005-10-22, 01:33:00,VALID,917.077,VALID,0,VALID,100,VALID,0,VALID,19.4503,VALID,350,VALID,0,
2005-10-22, 01:34:00,VALID,917.07,VALID,0,VALID,100,VALID,0.0339617,VALID,19.4495,VALID,350,VALID,0,
2005-10-22, 01:35:00,VALID,917.062,VALID,0,VALID,100,VALID,0.0169808,VALID,19.45,VALID,350,VALID,0,
2005-10-22, 01:36:00,VALID,917.043,VALID,0,VALID,100,VALID,0,VALID,19.4468,VALID,350,VALID,0,
2005-10-22, 01:37:00,VALID,917.025,VALID,0,VALID,100,VALID,0,VALID,19.4438,VALID,350,VALID,0,
2005-10-22, 01:38:00,VALID,917.006,VALID,0,VALID,100,VALID,0,VALID,19.46,VALID,350,VALID,0.139535,
2005-10-22, 01:39:00,VALID,916.992,VALID,0.2,VALID,100,VALID,0,VALID,19.447,VALID,350,VALID,0.254514,
2005-10-22, 01:40:00,VALID,916.981,VALID,0,VALID,100,VALID,-0.0169808,VALID,19.4212,VALID,350,VALID,0.260417,
2005-10-22, 01:41:00,VALID,916.958,VALID,0,VALID,100,VALID,0,VALID,19.4306,VALID,350,VALID,0.0303416,
2005-10-22, 01:42:00,VALID,916.956,VALID,0,VALID,100,VALID,0,VALID,19.4272,VALID,350,VALID,0,
2005-10-22, 01:43:00,VALID,916.949,VALID,0,VALID,100,VALID,0,VALID,19.4369,VALID,350,VALID,0,
2005-10-22, 01:44:00,VALID,916.945,VALID,0,VALID,100,VALID,0.0169808,VALID,19.4468,VALID,350,VALID,0,
2005-10-22, 01:45:00,VALID,916.935,VALID,0,VALID,100,VALID,0.0169808,VALID,19.4532,VALID,350,VALID,0,
2005-10-22, 01:46:00,VALID,916.922,VALID,0,VALID,100,VALID,0.0339617,VALID,19.4465,VALID,350,VALID,0,
2005-10-22, 01:47:00,VALID,916.928,VALID,0,VALID,100,VALID,0.0509425,VALID,19.4562,VALID,350,VALID,0,
2005-10-22, 01:48:00,VALID,916.914,VALID,0,VALID,100,VALID,0.0169808,VALID,19.4667,VALID,350,VALID,0.0014881,
2005-10-22, 01:49:00,VALID,916.905,VALID,0,VALID,100,VALID,-0.0169808,VALID,19.4823,VALID,350,VALID,0,
2005-10-22, 01:50:00,VALID,916.891,VALID,0,VALID,100,VALID,0,VALID,19.4895,VALID,350,VALID,0,
2005-10-22, 01:51:00,VALID,916.871,VALID,0,VALID,100,VALID,0.0169808,VALID,19.4689,VALID,350,VALID,0,
2005-10-22, 01:52:00,VALID,916.847,VALID,0,VALID,100,VALID,0.0169808,VALID,19.4664,VALID,350,VALID,0,
2005-10-22, 01:53:00,VALID,916.831,VALID,0,VALID,100,VALID,0,VALID,19.46,VALID,350,VALID,0,
2005-10-22, 01:54:00,VALID,916.82,VALID,0,VALID,100,VALID,0.0169808,VALID,19.4428,VALID,350,VALID,0,
2005-10-22, 01:55:00,VALID,916.813,VALID,0,VALID,100,VALID,0,VALID,19.4595,VALID,350,VALID,0,
2005-10-22, 01:56:00,VALID,916.796,VALID,0,VALID,100,VALID,0.0509425,VALID,19.4784,VALID,350,VALID,0,
2005-10-22, 01:57:00,VALID,916.786,VALID,0,VALID,100,VALID,0.0169808,VALID,19.4982,VALID,350,VALID,0,
2005-10-22, 01:58:00,VALID,916.769,VALID,0,VALID,100,VALID,0.0339617,VALID,19.495,VALID,350,VALID,0,
2005-10-22, 01:59:00,VALID,916.756,VALID,0,VALID,100,VALID,0.0169808,VALID,19.4952,VALID,350,VALID,0,
2005-10-22, 02:00:00,VALID,916.742,VALID,0,VALID,100,VALID,0.0169808,VALID,19.4786,VALID,350,VALID,0,
2005-10-22, 02:01:00,VALID,916.715,VALID,0,VALID,100,VALID,0,VALID,19.492,VALID,350,VALID,0,
2005-10-22, 02:02:00,VALID,916.695,VALID,0,VALID,100,VALID,0.0509425,VALID,19.4918,VALID,350,VALID,0,
2005-10-22, 02:03:00,VALID,916.694,VALID,0,VALID,100,VALID,-0.0849042,VALID,19.4736,VALID,350,VALID,0,
2005-10-22, 02:04:00,VALID,916.673,VALID,0,VALID,100,VALID,-0.0849042,VALID,19.4637,VALID,350,VALID,0.0323153,
2005-10-22, 02:05:00,VALID,916.662,VALID,0,VALID,100,VALID,-0.101885,VALID,19.4515,VALID,350,VALID,0,
2005-10-22, 02:06:00,VALID,916.654,VALID,0,VALID,100,VALID,-0.101885,VALID,19.4254,VALID,350,VALID,0.232515,
2005-10-22, 02:07:00,VALID,916.629,VALID,0,VALID,100,VALID,-0.0509425,VALID,19.4157,VALID,350,VALID,0.216206,
2005-10-22, 02:08:00,VALID,916.613,VALID,0,VALID,100,VALID,-0.101885,VALID,19.3929,VALID,350,VALID,0.0839844,
2005-10-22, 02:09:00,VALID,916.601,VALID,0,VALID,100,VALID,-0.0849042,VALID,19.3899,VALID,350,VALID,0.343006,
2005-10-22, 02:10:00,VALID,916.577,VALID,0,VALID,100,VALID,-0.0849042,VALID,19.3735,VALID,350,VALID,0.285442,
2005-10-22, 02:11:00,VALID,916.574,VALID,0,VALID,100,VALID,-0.0849042,VALID,19.3675,VALID,350,VALID,0.319425,
2005-10-22, 02:12:00,VALID,916.56,VALID,0,VALID,100,VALID,-0.101885,VALID,19.3548,VALID,350,VALID,0.383176,
2005-10-22, 02:13:00,VALID,916.548,VALID,0,VALID,100,VALID,-0.101885,VALID,19.3449,VALID,350,VALID,0.330433,
2005-10-22, 02:14:00,VALID,916.551,VALID,0,VALID,100,VALID,-0.101885,VALID,19.3449,VALID,350,VALID,0.327724,
2005-10-22, 02:15:00,VALID,916.555,VALID,0,VALID,100,VALID,-0.0849042,VALID,19.3347,VALID,350,VALID,0.355373,
2005-10-22, 02:16:00,VALID,916.539,VALID,0,VALID,100,VALID,-0.0679233,VALID,19.3153,VALID,68,VALID,0.411519,
2005-10-22, 02:17:00,VALID,916.549,VALID,0,VALID,100,VALID,-0.0849042,VALID,19.3059,VALID,157,VALID,0.515443,
2005-10-22, 02:18:00,VALID,916.542,VALID,0,VALID,100,VALID,-0.0679233,VALID,19.293,VALID,156,VALID,0.512173,
2005-10-22, 02:19:00,VALID,916.531,VALID,0,VALID,100,VALID,-0.101885,VALID,19.284,VALID,156,VALID,0.516352,
2005-10-22, 02:20:00,VALID,916.523,VALID,0,VALID,100,VALID,-0.0679233,VALID,19.2706,VALID,156,VALID,0.388579,
2005-10-22, 02:21:00,VALID,916.513,VALID,0,VALID,100,VALID,-0.0679233,VALID,19.2579,VALID,156,VALID,0.424132,
2005-10-22, 02:22:00,VALID,916.5,VALID,0,VALID,100,VALID,-0.0849042,VALID,19.2478,VALID,156,VALID,0.327398,
2005-10-22, 02:23:00,VALID,916.496,VALID,0,VALID,100,VALID,-0.101885,VALID,19.245,VALID,156,VALID,0.195898,
2005-10-22, 02:24:00,VALID,916.49,VALID,0,VALID,100,VALID,-0.101885,VALID,19.2413,VALID,156,VALID,0,
2005-10-22, 02:25:00,VALID,916.473,VALID,0,VALID,100,VALID,-0.101885,VALID,19.2411,VALID,156,VALID,0.077753,
2005-10-22, 02:26:00,VALID,916.465,VALID,0,VALID,100,VALID,-0.0509425,VALID,19.2545,VALID,156,VALID,0.153343,
2005-10-22, 02:27:00,VALID,916.446,VALID,0,VALID,100,VALID,-0.0509425,VALID,19.254,VALID,156,VALID,0.0671503,
2005-10-22, 02:28:00,VALID,916.437,VALID,0,VALID,100,VALID,-0.0339617,VALID,19.2542,VALID,156,VALID,0,
2005-10-22, 02:29:00,VALID,916.415,VALID,0,VALID,100,VALID,-0.0679233,VALID,19.2512,VALID,156,VALID,0.000181686,
2005-10-22, 02:30:00,VALID,916.405,VALID,0,VALID,100,VALID,-0.0679233,VALID,19.2251,VALID,153,VALID,0.168069,
2005-10-22, 02:31:00,VALID,916.399,VALID,0,VALID,100,VALID,-0.101885,VALID,19.2286,VALID,139,VALID,0.318714,
2005-10-22, 02:32:00,VALID,916.377,VALID,0,VALID,100,VALID,-0.101885,VALID,19.1928,VALID,135,VALID,0.394886,
2005-10-22, 02:33:00,VALID,916.364,VALID,0,VALID,100,VALID,0,VALID,19.1792,VALID,134,VALID,0.40407,
2005-10-22, 02:34:00,VALID,916.344,VALID,0,VALID,100,VALID,0,VALID,19.1727,VALID,134,VALID,0.339571,
2005-10-22, 02:35:00,VALID,916.34,VALID,0,VALID,100,VALID,-0.0169808,VALID,19.1757,VALID,134,VALID,0.0121951,
2005-10-22, 02:36:00,VALID,916.33,VALID,0,VALID,100,VALID,0,VALID,19.1727,VALID,134,VALID,0.00093006,
2005-10-22, 02:37:00,VALID,916.32,VALID,0,VALID,100,VALID,-0.0169808,VALID,19.1631,VALID,134,VALID,0,
2005-10-22, 02:38:00,VALID,916.319,VALID,0,VALID,100,VALID,-0.0339617,VALID,19.1762,VALID,134,VALID,0.000952744,
2005-10-22, 02:39:00,VALID,916.303,VALID,0,VALID,100,VALID,-0.0169808,VALID,19.1827,VALID,134,VALID,0,
2005-10-22, 02:40:00,VALID,916.301,VALID,0,VALID,100,VALID,-0.0339617,VALID,19.1993,VALID,134,VALID,0,
2005-10-22, 02:41:00,VALID,916.304,VALID,0,VALID,100,VALID,-0.0169808,VALID,19.202,VALID,134,VALID,0.0774306,
2005-10-22, 02:42:00,VALID,916.292,VALID,0,VALID,100,VALID,-0.0169808,VALID,19.1953,VALID,134,VALID,0.244048,
2005-10-22, 02:43:00,VALID,916.296,VALID,0,VALID,100,VALID,0,VALID,19.1953,VALID,134,VALID,0.342076,
2005-10-22, 02:44:00,VALID,916.298,VALID,0,VALID,100,VALID,0,VALID,19.1953,VALID,133,VALID,0.232639,
2005-10-22, 02:45:00,VALID,916.297,VALID,0,VALID,100,VALID,0,VALID,19.1991,VALID,133,VALID,0.110547,
2005-10-22, 02:46:00,VALID,916.315,VALID,0,VALID,100,VALID,0,VALID,19.1727,VALID,133,VALID,0,
2005-10-22, 02:47:00,VALID,916.332,VALID,0,VALID,100,VALID,-0.0169808,VALID,19.1633,VALID,133,VALID,0,
2005-10-22, 02:48:00,VALID,916.344,VALID,0,VALID,100,VALID,0,VALID,19.1561,VALID,133,VALID,0,
2005-10-22, 02:49:00,VALID,916.348,VALID,0,VALID,100,VALID,-0.0169808,VALID,19.1566,VALID,133,VALID,0,
2005-10-22, 02:50:00,VALID,916.36,VALID,0,VALID,100,VALID,0,VALID,19.1633,VALID,133,VALID,0,
2005-10-22, 02:51:00,VALID,916.378,VALID,0,VALID,100,VALID,0,VALID,19.1531,VALID,133,VALID,0,
2005-10-22, 02:52:00,VALID,916.391,VALID,0,VALID,100,VALID,0,VALID,19.1564,VALID,133,VALID,0,
2005-10-22, 02:53:00,VALID,916.405,VALID,0,VALID,100,VALID,0.0169808,VALID,19.1499,VALID,133,VALID,0,
2005-10-22, 02:54:00,VALID,916.409,VALID,0,VALID,100,VALID,0,VALID,19.1732,VALID,133,VALID,0.303085,
2005-10-22, 02:55:00,VALID,916.425,VALID,0,VALID,100,VALID,-0.0169808,VALID,19.1469,VALID,133,VALID,0.335537,
2005-10-22, 02:56:00,VALID,916.432,VALID,0,VALID,100,VALID,0,VALID,19.1504,VALID,133,VALID,0.260975,
2005-10-22, 02:57:00,VALID,916.433,VALID,0,VALID,100,VALID,0,VALID,19.1409,VALID,133,VALID,0.326265,
2005-10-22, 02:58:00,VALID,916.444,VALID,0,VALID,100,VALID,0,VALID,19.1347,VALID,133,VALID,0.123666,
2005-10-22, 02:59:00,VALID,916.45,VALID,0,VALID,100,VALID,-0.0169808,VALID,19.1181,VALID,133,VALID,0,
2005-10-22, 03:00:00,VALID,916.458,VALID,0,VALID,100,VALID,-0.0169808,VALID,19.1119,VALID,133,VALID,0.0202415,
2005-10-22, 03:01:00,VALID,916.471,VALID,0,VALID,100,VALID,0,VALID,19.1086,VALID,133,VALID,0.0631944,
2005-10-22, 03:02:00,VALID,916.482,VALID,0,VALID,100,VALID,-0.0169808,VALID,19.1052,VALID,133,VALID,0,
2005-10-22, 03:03:00,VALID,916.497,VALID,0,VALID,100,VALID,-0.0169808,VALID,19.1186,VALID,133,VALID,0,
2005-10-22, 03:04:00,VALID,916.513,VALID,0,VALID,100,VALID,-0.0169808,VALID,19.1049,VALID,133,VALID,0,
2005-10-22, 03:05:00,VALID,916.515,VALID,0,VALID,100,VALID,0,VALID,19.122,VALID,133,VALID,0,
2005-10-22, 03:06:00,VALID,916.525,VALID,0,VALID,100,VALID,-0.0509425,VALID,19.1121,VALID,133,VALID,0,
2005-10-22, 03:07:00,VALID,916.524,VALID,0,VALID,100,VALID,0.0169808,VALID,19.1218,VALID,133,VALID,0,
2005-10-22, 03:08:00,VALID,916.549,VALID,0,VALID,100,VALID,-0.0339617,VALID,19.1081,VALID,133,VALID,0,
2005-10-22, 03:09:00,VALID,916.54,VALID,0,VALID,100,VALID,-0.0169808,VALID,19.1056,VALID,133,VALID,0,
2005-10-22, 03:10:00,VALID,916.535,VALID,0,VALID,100,VALID,-0.0339617,VALID,19.0989,VALID,133,VALID,0,
2005-10-22, 03:11:00,VALID,916.549,VALID,0,VALID,100,VALID,-0.0169808,VALID,19.0927,VALID,133,VALID,0.324033,
2005-10-22, 03:12:00,VALID,916.551,VALID,0,VALID,100,VALID,-0.0169808,VALID,19.1215,VALID,133,VALID,0.418423,
2005-10-22, 03:13:00,VALID,916.562,VALID,0,VALID,100,VALID,-0.0169808,VALID,19.1315,VALID,103,VALID,0.482515,
2005-10-22, 03:14:00,VALID,916.567,VALID,0,VALID,100,VALID,0,VALID,19.1248,VALID,86,VALID,0.490945,
2005-10-22, 03:15:00,VALID,916.584,VALID,0,VALID,100,VALID,-0.0169808,VALID,19.1317,VALID,82,VALID,0.498857,
2005-10-22, 03:16:00,VALID,916.593,VALID,0,VALID,100,VALID,0,VALID,19.1282,VALID,82,VALID,0.476381,
2005-10-22, 03:17:00,VALID,916.603,VALID,0,VALID,100,VALID,-0.0169808,VALID,19.1183,VALID,82,VALID,0.158654,
2005-10-22, 03:18:00,VALID,916.605,VALID,0,VALID,100,VALID,-0.118866,VALID,19.0939,VALID,82,VALID,0.0889137,
2005-10-22, 03:19:00,VALID,916.599,VALID,0,VALID,100,VALID,-0.135847,VALID,19.0877,VALID,82,VALID,0.322976,
2005-10-22, 03:20:00,VALID,916.601,VALID,0,VALID,100,VALID,-0.101885,VALID,19.0554,VALID,82,VALID,0.213715,
2005-10-22, 03:21:00,VALID,916.593,VALID,0,VALID,100,VALID,-0.101885,VALID,18.991,VALID,82,VALID,0.186384,
2005-10-22, 03:22:00,VALID,916.588,VALID,0,VALID,100,VALID,-0.101885,VALID,18.9513,VALID,82,VALID,0.23544,
2005-10-22, 03:23:00,VALID,916.579,VALID,0,VALID,100,VALID,-0.101885,VALID,18.9647,VALID,81,VALID,0.168786,
2005-10-22, 03:24:00,VALID,916.574,VALID,0,VALID,100,VALID,-0.101885,VALID,18.9647,VALID,80,VALID,0.288318,
2005-10-22, 03:25:00,VALID,916.574,VALID,0,VALID,100,VALID,-0.135847,VALID,18.962,VALID,53,VALID,0.528587,
2005-10-22, 03:26:00,VALID,916.573,VALID,0,VALID,100,VALID,-0.118866,VALID,18.9814,VALID,33,VALID,0.559766,
2005-10-22, 03:27:00,VALID,916.583,VALID,0,VALID,100,VALID,-0.101885,VALID,19.0166,VALID,24,VALID,0.556868,
2005-10-22, 03:28:00,VALID,916.575,VALID,0,VALID,100,VALID,-0.101885,VALID,19.0166,VALID,23,VALID,0.536204,
2005-10-22, 03:29:00,VALID,916.574,VALID,0,VALID,100,VALID,-0.118866,VALID,19.0263,VALID,15,VALID,0.464063,
2005-10-22, 03:30:00,VALID,916.573,VALID,0,VALID,100,VALID,-0.118866,VALID,19.0395,VALID,17,VALID,0.725836,
2005-10-22, 03:31:00,VALID,916.576,VALID,0,VALID,100,VALID,-0.118866,VALID,19.033,VALID,25,VALID,0.396391,
2005-10-22, 03:32:00,VALID,916.553,VALID,0,VALID,100,VALID,-0.135847,VALID,18.9774,VALID,21,VALID,0.434152,
2005-10-22, 03:33:00,VALID,916.548,VALID,0,VALID,100,VALID,-0.0679233,VALID,18.9508,VALID,20,VALID,0.233994,
2005-10-22, 03:34:00,VALID,916.545,VALID,0,VALID,100,VALID,-0.0339617,VALID,18.9315,VALID,20,VALID,0.00218023,
2005-10-22, 03:35:00,VALID,916.541,VALID,0,VALID,100,VALID,0,VALID,18.9121,VALID,20,VALID,0.20476,
2005-10-22, 03:36:00,VALID,916.543,VALID,0,VALID,100,VALID,-0.0339617,VALID,18.9578,VALID,20,VALID,0.0779297,
2005-10-22, 03:37:00,VALID,916.552,VALID,0,VALID,100,VALID,-0.0339617,VALID,18.9767,VALID,20,VALID,0.0847942,
2005-10-22, 03:38:00,VALID,916.547,VALID,0,VALID,100,VALID,-0.0169808,VALID,19.0028,VALID,20,VALID,0.059048,
2005-10-22, 03:39:00,VALID,916.553,VALID,0,VALID,100,VALID,-0.0169808,VALID,19.0154,VALID,20,VALID,0,
2005-10-22, 03:40:00,VALID,916.567,VALID,0,VALID,100,VALID,-0.101885,VALID,19.0321,VALID,20,VALID,0,
2005-10-22, 03:41:00,VALID,916.584,VALID,0,VALID,100,VALID,-0.0679233,VALID,19.0381,VALID,20,VALID,0,
2005-10-22, 03:42:00,VALID,916.591,VALID,0,VALID,100,VALID,-0.0169808,VALID,19.0351,VALID,20,VALID,0,
2005-10-22, 03:43:00,VALID,916.602,VALID,0,VALID,100,VALID,-0.0339617,VALID,19.0214,VALID,20,VALID,0.00475543,
2005-10-22, 03:44:00,VALID,916.618,VALID,0,VALID,100,VALID,-0.0679233,VALID,19.0351,VALID,20,VALID,0.0681818,